This demonstration page uses our WeatherBlox Daily Observations layout. Learn more.

Left ArrowRight Arrow

34.74481, -87.66753

Hourly Observations for August 6, 2015

Temp ( °F °C ) Dew Point ( °F °C ) Humidity (%) Winds ( mph kmh ) Pressure ( in mb ) Visibility ( mi km ) Precip ( " mm )
12:53 am 00:53 Clear 71 21.7 69 20.6 94 94 Calm 29.92 1013 10 16 0.00 0.00
1:53 am 01:53 Mostly Cloudy 71 21.7 68 20 90 90 Calm 29.91 1013 10 16 0.00 0.00
2:53 am 02:53 Mostly Cloudy 72 22.2 69 20.6 91 91 NW 14 22 29.94 1014 10 16 0.00 0.00
3:53 am 03:53 Cloudy with Light Rain 71 21.7 66 18.9 84 84 NW 10 17 29.96 1014 10 16 0.07 1.78
4:22 am 04:22 Cloudy with Nearby Thunderstorms 70 21.1 66 18.9 87 87 WNW 8 13 29.94 1014 10 16 0.05 1.27
4:42 am 04:42 Cloudy with Heavy Rain 70 21.1 66 18.9 87 87 W 15 24 29.97 1015 10 16 0.12 3.05
4:49 am 04:49 Cloudy with Nearby Thunderstorms 70 21 66 19 88 88 NNW 5 7 29.94 1014 10 16 0.14 3.56
4:53 am 04:53 Cloudy with Nearby Thunderstorms 70 21.1 67 19.4 90 90 NW 6 9 29.94 1014 10 16 0.15 3.81
5:21 am 05:21 Mostly Cloudy with Light Rain 71 21.7 67 19.4 87 87 SSE 12 19 29.88 1012 10 16 0.00 0.03
5:53 am 05:53 Mostly Cloudy with Light Rain 71 21.7 67 19.4 87 87 WNW 9 15 29.93 1014 10 16 0.02 0.51
6:53 am 06:53 Mostly Cloudy with Light Rain 71 21.7 68 20 90 90 SE 7 11 29.88 1012 10 16 0.02 0.51
7:53 am 07:53 Mostly Cloudy with Strong Thunderstorms 72 22.2 69 20.6 91 91 W 12 19 29.94 1014 10 16 0.05 1.27
8:18 am 08:18 Cloudy with Light Rain 72 22.2 69 20.6 91 91 S 9 15 29.91 1013 10 16 0.14 3.56
8:53 am 08:53 Mostly Cloudy 74 23.3 70 21.1 88 88 S 7 11 29.91 1013 10 16 0.14 3.56
9:53 am 09:53 Mostly Cloudy with Thunderstorms 75 23.9 70 21.1 84 84 WSW 7 11 29.93 1014 10 16 0.01 0.25
10:21 am 10:21 Cloudy with Nearby Thunderstorms 74 23.3 70 21.1 88 88 Calm 29.91 1013 10 16 0.24 6.10
10:31 am 10:31 Cloudy with Strong Thunderstorms 73 22.8 70 21.1 90 90 ESE 3 6 29.91 1013 10 16 0.27 6.86
10:53 am 10:53 Cloudy with Nearby Thunderstorms 73 22.8 71 21.7 94 94 ESE 3 6 29.92 1013 10 16 0.39 9.91
11:13 am 11:13 Cloudy with Strong Thunderstorms 73 22.8 70 21.1 90 90 SSE 6 9 29.91 1013 10 16 0.16 4.06
11:48 am 11:48 Cloudy with Nearby Thunderstorms 72 22 70 21 94 94 SSE 6 9 29.91 1013 10 16 0.47 11.94
11:53 am 11:53 Cloudy with Strong Thunderstorms 72 22.2 70 21.1 94 94 S 10 17 29.91 1013 10 16 0.62 15.75
12:23 pm 12:23 Cloudy with Strong Thunderstorms 73 22.8 70 21.1 90 90 S 10 17 29.88 1012 10 16 0.40 10.16
12:53 pm 12:53 Cloudy with Thunderstorms 73 22.8 71 21.7 94 94 S 7 11 29.88 1012 10 16 0.63 16.00
1:05 pm 13:05 Cloudy with Nearby Thunderstorms 74 23.3 71 21.7 91 91 S 6 9 29.88 1012 10 16 0.01 0.25
1:17 pm 13:17 Cloudy with Heavy Rain 74 23.3 71 21.7 91 91 SW 9 15 29.88 1012 10 16 0.15 3.81
1:53 pm 13:53 Cloudy 75 23.9 73 22.8 94 94 W 10 17 29.88 1012 10 16 0.26 6.60
1:57 pm 13:57 Cloudy 76 24.4 73 22.8 91 91 WSW 9 15 29.85 1011 10 16 0.00 0.00
2:18 pm 14:18 Cloudy 77 25 73 22.8 88 88 W 10 17 29.88 1012 10 16 0.00 0.00
2:53 pm 14:53 Cloudy 79 26.1 74 23.3 85 85 WSW 7 11 29.85 1011 10 16 0.00 0.00
3:53 pm 15:53 Cloudy 79 26.1 74 23.3 85 85 WSW 13 20 29.84 1011 10 16 0.00 0.00
4:11 pm 16:11 Cloudy with Rain 79 26.1 74 23.3 85 85 W 9 15 29.83 1010 10 16 0.05 1.27
4:23 pm 16:23 Cloudy with Heavy Rain 77 25 74 23.3 90 90 WNW 6 9 29.83 1010 10 16 0.13 3.30
4:30 pm 16:30 Cloudy with Light Rain 77 25 74 23.3 90 90 NNW 6 9 29.83 1010 10 16 0.13 3.30
4:48 pm 16:48 Partly Cloudy 81 27 75 24 84 84 NW 6 9 29.83 1010 10 16 0.13 3.30
4:53 pm 16:53 Mostly Sunny 80 26.7 76 24.4 87 87 WNW 6 9 29.84 1011 10 16 0.13 3.30
5:06 pm 17:06 Mostly Sunny 81 27.2 75 23.9 82 82 W 9 15 29.83 1010 10 16 0.00 0.00
5:53 pm 17:53 Mostly Cloudy 82 27.8 76 24.4 82 82 WNW 7 11 29.83 1010 10 16 0.00 0.00
6:04 pm 18:04 Mostly Sunny 82 27.8 74 23.3 77 77 NW 9 15 29.83 1010 10 16 0.00 0.00
6:53 pm 18:53 Mostly Sunny 81 27.2 73 22.8 77 77 NW 6 9 29.82 1010 10 16 0.00 0.00
7:53 pm 19:53 Mostly Clear 77 25 73 22.8 88 88 Calm 29.84 1011 10 16 0.00 0.00
8:53 pm 20:53 Clear 75 23.9 72 22.2 90 90 Calm 29.85 1011 10 16 0.00 0.00
9:53 pm 21:53 Clear 74 23.3 71 21.7 91 91 NW 3 6 29.85 1011 10 16 0.00 0.00
10:53 pm 22:53 Clear 75 23.9 71 21.7 88 88 WNW 3 6 29.86 1011 10 16 0.00 0.00
11:53 pm 23:53 Clear 73 22.8 70 21.1 90 90 Calm 29.86 1011 10 16 0.00 0.00

Powered by AerisWeather